WA4FG Weather Reports


Display with metric or nautical units.
time (UTC)temp
F
wind
direction
speed
MPH
gust
MPH
rain 1hr
in
rain 24hr
in
rain mn
in
humidity
%
barometer
mb
20260903215909 95 300 0.0 1.0 0.00 0.00 0.00 57 1013.5
20260903214835 95 191 0.0 2.0 0.00 0.00 0.00 50 1013.4
20260903214305 95 207 0.0 0.0 0.00 0.00 0.00 51 1013.4
20260903213804 95 111 0.0 0.0 0.00 0.00 0.00 52 1013.4
20260903213300 95 86 0.0 0.0 0.00 0.00 0.00 51 1013.4
20260903212748 96 340 0.0 0.0 0.00 0.00 0.00 51 1013.4
20260903212246 96 343 0.0 1.0 0.00 0.00 0.00 48 1013.4
20260903211721 96 344 0.0 0.0 0.00 0.00 0.00 51 1013.4
20260903211157 96 205 0.0 1.0 0.00 0.00 0.00 48 1013.4
20260903210125 96 288 0.0 1.0 0.00 0.00 0.00 49 1013.5
20260903205628 96 187 0.0 0.0 0.00 0.00 0.00 50 1013.7
20260903204048 95 329 0.0 1.0 0.00 0.00 0.00 50 1013.8
20260903203547 95 325 0.0 1.0 0.00 0.00 0.00 50 1013.8
20260903203048 95 192 0.0 2.0 0.00 0.00 0.00 49 1013.8
20260903202547 96 234 0.0 2.0 0.00 0.00 0.00 54 1013.9
20260903202019 96 205 0.0 7.0 0.00 0.00 0.00 50 1013.9
20260903201517 97 213 0.0 7.0 0.00 0.00 0.00 49 1013.9
20260903195928 97 229 0.0 6.0 0.00 0.00 0.00 48 1014.3
20260903195429 97 180 0.0 1.0 0.00 0.00 0.00 48 1014.3
20260903194927 97 191 0.0 1.0 0.00 0.00 0.00 47 1014.4
20260903194408 98 284 0.0 1.0 0.00 0.00 0.00 46 1014.6
20260903193910 98 149 0.0 1.0 0.00 0.00 0.00 46 1014.6
20260903193409 98 329 0.0 4.0 0.00 0.00 0.00 46 1014.7
20260903192910 98 68 0.0 4.0 0.00 0.00 0.00 46 1014.7
20260903191832 98 321 0.0 1.0 0.00 0.00 0.00 47 1014.8
20260903191308 98 171 0.0 2.0 0.00 0.00 0.00 48 1014.9
20260903190806 98 171 0.0 2.0 0.00 0.00 0.00 47 1014.9
20260903190303 98 28 0.0 1.0 0.00 0.00 0.00 47 1015.0
20260903185751 99 194 0.0 5.0 0.00 0.00 0.00 46 1015.0
20260903184735 99 200 0.0 6.0 0.00 0.00 0.00 47 1015.1
20260903184230 99 202 0.0 6.0 0.00 0.00 0.00 47 1015.1
20260903183728 98 289 0.0 0.0 0.00 0.00 0.00 48 1015.1
20260903183200 98 289 1.0 8.0 0.00 0.00 0.00 47 1015.1
20260903182658 98 289 1.0 8.0 0.00 0.00 0.00 49 1015.3
20260903182147 97 222 0.0 0.0 0.00 0.00 0.00 51 1015.4
20260903181645 97 221 0.0 4.0 0.00 0.00 0.00 51 1015.5
20260903180551 97 283 0.0 7.0 0.00 0.00 0.00 49 1015.6
20260903175523 97 187 0.0 6.0 0.00 0.00 0.00 49 1015.7
20260903175003 96 186 0.0 6.0 0.00 0.00 0.00 54 1015.8
20260903174500 95 194 0.0 2.0 0.00 0.00 0.00 57 1015.8
20260903173933 95 323 0.0 2.0 0.00 0.00 0.00 52 1015.9
20260903172908 95 215 0.0 0.0 0.00 0.00 0.00 53 1016.1
20260903172353 95 215 0.0 0.0 0.00 0.00 0.00 56 1016.1
20260903171849 95 215 0.0 0.0 0.00 0.00 0.00 54 1016.3
20260903171325 96 141 0.0 0.0 0.00 0.00 0.00 54 1016.4
20260903170820 96 141 0.0 0.0 0.00 0.00 0.00 54 1016.4
20260903170320 96 165 0.0 0.0 0.00 0.00 0.00 52 1016.4
20260903165817 96 176 0.0 1.0 0.00 0.00 0.00 52 1016.5
20260903165309 96 126 0.0 1.0 0.00 0.00 0.00 55 1016.6
20260903164757 96 194 0.0 0.0 0.00 0.00 0.00 55 1016.7
20260903164255 96 273 0.0 0.0 0.00 0.00 0.00 54 1016.7
20260903163237 96 153 0.0 0.0 0.00 0.00 0.00 54 1016.8
20260903162219 95 154 0.0 0.0 0.00 0.00 0.00 54 1016.9
20260903161719 95 109 0.0 1.0 0.00 0.00 0.00 55 1017.0
20260903161131 94 109 0.0 0.0 0.00 0.00 0.00 57 1017.1
20260903160629 94 109 0.0 0.0 0.00 0.00 0.00 57 1017.1
20260903160125 94 19 0.0 0.0 0.00 0.00 0.00 59 1017.1
20260903155549 94 17 0.0 0.0 0.00 0.00 0.00 58 1017.3
20260903155023 93 18 0.0 0.0 0.00 0.00 0.00 57 1017.3
20260903154520 93 306 0.0 0.0 0.00 0.00 0.00 58 1017.4
20260903154012 92 309 0.0 0.0 0.00 0.00 0.00 59 1017.3
20260903153510 92 309 0.0 0.0 0.00 0.00 0.00 61 1017.4
20260903152506 92 309 0.0 0.0 0.00 0.00 0.00 63 1017.4
20260903152017 92 309 0.0 0.0 0.00 0.00 0.00 61 1017.3
20260903151505 91 310 0.0 0.0 0.00 0.00 0.00 69 1017.3
20260903150432 90 310 0.0 0.0 0.00 0.00 0.00 73 1017.2
20260903145430 89 310 0.0 0.0 0.00 0.00 0.00 68 1017.2
20260903144928 89 309 0.0 0.0 0.00 0.00 0.00 73 1017.2
20260903144406 88 309 0.0 0.0 0.00 0.00 0.00 70 1017.1
20260903143834 88 309 0.0 0.0 0.00 0.00 0.00 71 1017.1
20260903143307 87 309 0.0 0.0 0.00 0.00 0.00 72 1017.1
20260903142803 86 312 0.0 0.0 0.00 0.00 0.00 75 1017.1
20260903142243 85 312 0.0 0.0 0.00 0.00 0.00 80 1017.1
20260903141742 84 312 0.0 0.0 0.00 0.00 0.00 83 1017.1
20260903141244 83 312 0.0 0.0 0.00 0.00 0.00 84 1017.1
20260903140701 82 312 0.0 0.0 0.00 0.00 0.00 86 1017.1
20260903135638 81 312 0.0 0.0 0.00 0.00 0.00 90 1017.1
20260903134634 79 312 0.0 0.0 0.00 0.00 0.00 94 1017.2
20260903134136 79 312 0.0 0.0 0.00 0.00 0.00 96 1017.2
20260903133554 78 312 0.0 0.0 0.00 0.00 0.00 97 1017.2
20260903133052 78 312 0.0 0.0 0.00 0.00 0.00 98 1017.2
20260903132531 78 312 0.0 0.0 0.00 0.00 0.00 98 1017.3
20260903132028 77 312 0.0 0.0 0.00 0.00 0.00 99 1017.3
20260903131526 77 312 0.0 0.0 0.00 0.00 0.00 99 1017.4
20260903131007 77 312 0.0 0.0 0.00 0.00 0.00 99 1017.3
20260903125941 76 312 0.0 0.0 0.00 0.00 0.00 100 1017.2
20260903125414 76 312 0.0 0.0 0.00 0.00 0.00 99 1017.2
20260903124911 76 312 0.0 0.0 0.00 0.00 0.00 99 1017.2
20260903124350 75 312 0.0 0.0 0.00 0.00 0.00 99 1017.1
20260903123834 75 312 0.0 0.0 0.00 0.00 0.00 99 1017.0
20260903123334 75 312 0.0 0.0 0.00 0.00 0.00 99 1017.2
20260903122245 75 312 0.0 0.0 0.00 0.00 0.00 99 1017.1
20260903121715 75 312 0.0 0.0 0.00 0.00 0.00 99 1017.0
20260903120134 75 312 0.0 0.0 0.00 0.00 0.00 99 1017.1
20260903115630 75 312 0.0 0.0 0.00 0.00 0.00 99 1017.1
20260903114555 75 312 0.0 0.0 0.00 0.00 0.00 99 1017.1
20260903114054 75 312 0.0 0.0 0.00 0.00 0.00 99 1017.0
20260903113553 75 312 0.0 0.0 0.00 0.00 0.00 99 1017.0
20260903113052 75 312 0.0 0.0 0.00 0.00 0.00 99 1016.9
20260903112549 75 312 0.0 0.0 0.00 0.00 0.00 99 1016.8
20260903111520 75 312 0.0 0.0 0.00 0.00 0.00 99 1016.6
20260903110952 75 312 0.0 0.0 0.00 0.00 0.00 99 1016.6
20260903110448 75 312 0.0 0.0 0.00 0.00 0.00 98 1016.5
20260903105930 75 312 0.0 0.0 0.00 0.00 0.00 98 1016.5
20260903105427 75 312 0.0 0.0 0.00 0.00 0.00 98 1016.5
20260903104913 75 312 0.0 0.0 0.00 0.00 0.00 98 1016.5
20260903104359 75 312 0.0 0.0 0.00 0.00 0.00 98 1016.4
20260903103313 75 312 0.0 0.0 0.00 0.00 0.00 98 1016.4
20260903102203 75 312 0.0 0.0 0.00 0.00 0.00 98 1016.4
20260903101153 75 312 0.0 0.0 0.00 0.00 0.00 98 1016.4
20260903100653 75 312 0.0 0.0 0.00 0.00 0.00 98 1016.4
20260903100136 75 312 0.0 0.0 0.00 0.00 0.00 98 1016.4
20260903095635 75 312 0.0 0.0 0.00 0.00 0.00 98 1016.3
20260903095134 75 312 0.0 0.0 0.00 0.00 0.00 98 1016.3
20260903094606 75 312 0.0 0.0 0.00 0.00 0.00 98 1016.3
20260903094103 75 312 0.0 0.0 0.00 0.00 0.00 98 1016.4
20260903093535 75 312 0.0 0.0 0.00 0.00 0.00 97 1016.4
20260903093032 75 312 0.0 0.0 0.00 0.00 0.00 97 1016.4
20260903092515 76 312 0.0 0.0 0.00 0.00 0.00 97 1016.3
20260903092011 76 312 0.0 0.0 0.00 0.00 0.00 97 1016.3
20260903091513 76 312 0.0 0.0 0.00 0.00 0.00 97 1016.2
20260903091006 76 312 0.0 0.0 0.00 0.00 0.00 97 1016.3
20260903090516 76 312 0.0 0.0 0.00 0.00 0.00 97 1016.2
20260903085948 76 312 0.0 0.0 0.00 0.00 0.00 97 1016.2
20260903085449 76 312 0.0 0.0 0.00 0.00 0.00 97 1016.3
20260903084923 76 312 0.0 0.0 0.00 0.00 0.00 97 1016.3
20260903083850 76 312 0.0 0.0 0.00 0.00 0.00 97 1016.3
20260903082333 76 312 0.0 0.0 0.00 0.00 0.00 97 1016.3
20260903081807 76 312 0.0 0.0 0.00 0.00 0.00 96 1016.3
20260903081240 76 312 0.0 0.0 0.00 0.00 0.00 96 1016.3
20260903080712 76 312 0.0 0.0 0.00 0.00 0.00 96 1016.3
20260903080207 76 312 0.0 0.0 0.00 0.00 0.00 96 1016.3
20260903075641 76 312 0.0 0.0 0.00 0.00 0.00 96 1016.2
20260903075117 76 312 0.0 0.0 0.00 0.00 0.00 96 1016.1
20260903074621 76 312 0.0 0.0 0.00 0.00 0.00 96 1016.1
20260903074059 76 312 0.0 0.0 0.00 0.00 0.00 96 1016.1
20260903073557 76 312 0.0 0.0 0.00 0.00 0.00 95 1016.2
20260903072539 77 312 0.0 0.0 0.00 0.00 0.00 95 1016.2
20260903072012 77 312 0.0 0.0 0.00 0.00 0.00 95 1016.2
20260903071455 77 312 0.0 0.0 0.00 0.00 0.00 95 1016.2
20260903070954 77 312 0.0 0.0 0.00 0.00 0.00 95 1016.3
20260903070453 77 312 0.0 0.0 0.00 0.00 0.00 95 1016.2
20260903065947 77 312 0.0 0.0 0.00 0.00 0.00 95 1016.2
20260903065446 77 312 0.0 0.0 0.00 0.00 0.00 95 1016.2
20260903064403 77 312 0.0 0.0 0.00 0.00 0.00 94 1016.3
20260903063905 77 312 0.0 0.0 0.00 0.00 0.00 94 1016.4
20260903063401 77 312 0.0 0.0 0.00 0.00 0.00 94 1016.4
20260903062915 77 312 0.0 0.0 0.00 0.00 0.00 94 1016.4
20260903061852 77 312 0.0 0.0 0.00 0.00 0.00 94 1016.5
20260903061335 77 312 0.0 0.0 0.00 0.00 0.00 94 1016.5
20260903060836 77 312 0.0 0.0 0.00 0.00 0.00 93 1016.5
20260903060335 77 312 0.0 0.0 0.00 0.00 0.00 93 1016.4
20260903055808 77 312 0.0 0.0 0.00 0.00 0.00 93 1016.4
20260903055306 77 312 0.0 0.0 0.00 0.00 0.00 93 1016.4
20260903054237 78 312 0.0 0.0 0.00 0.00 0.00 93 1016.4
20260903053714 78 312 0.0 0.0 0.00 0.00 0.00 92 1016.4
20260903053212 78 312 0.0 0.0 0.00 0.00 0.00 92 1016.4
20260903052657 78 312 0.0 0.0 0.00 0.00 0.00 92 1016.4
20260903052155 78 312 0.0 0.0 0.00 0.00 0.00 91 1016.4
20260903051706 78 312 0.0 0.0 0.00 0.00 0.00 91 1016.4
20260903050622 78 312 0.0 0.0 0.00 0.00 0.00 91 1016.4
20260903050112 78 312 0.0 0.0 0.00 0.00 0.00 91 1016.4
20260903045559 78 312 0.0 0.0 0.00 0.00 0.00 91 1016.5
20260903045041 78 312 0.0 0.0 0.00 0.00 0.00 91 1016.5
20260903044536 78 312 0.0 0.0 0.00 0.00 0.00 90 1016.5
20260903044019 79 312 0.0 0.0 0.00 0.00 0.00 90 1016.4
20260903043502 79 312 0.0 0.0 0.00 0.00 0.00 90 1016.4
20260903042420 79 312 0.0 0.0 0.00 0.00 0.00 89 1016.4
20260903041937 79 312 0.0 0.0 0.00 0.00 0.00 89 1016.4
20260903041419 79 312 0.0 0.0 0.00 0.00 0.00 88 1016.4
20260903040855 79 312 0.0 0.0 0.00 0.00 0.00 88 1016.4
20260903040328 79 312 0.0 0.0 0.00 0.00 0.00 88 1016.4
20260903035808 79 312 0.0 0.0 0.00 0.00 0.00 88 1016.4
20260903035253 80 312 0.0 0.0 0.00 0.00 0.00 88 1016.5
20260903034752 80 312 0.0 0.0 0.00 0.00 0.00 87 1016.5
20260903034252 80 312 0.0 0.0 0.00 0.00 0.00 87 1016.5
20260903033245 80 312 0.0 0.0 0.00 0.00 0.00 87 1016.5
20260903032721 80 312 0.0 0.0 0.00 0.00 0.00 86 1016.5
20260903032158 80 312 0.0 0.0 0.00 0.00 0.00 86 1016.5
20260903030650 80 312 0.0 0.0 0.00 0.00 0.00 85 1016.4
20260903030124 80 312 0.0 0.0 0.00 0.00 0.00 85 1016.5
20260903025624 80 312 0.0 0.0 0.00 0.00 0.00 84 1016.4
20260903025122 80 312 0.0 0.0 0.00 0.00 0.00 84 1016.4
20260903024622 80 312 0.0 0.0 0.00 0.00 0.00 84 1016.4
20260903024122 81 312 0.0 0.0 0.00 0.00 0.00 84 1016.4
20260903023627 81 312 0.0 0.0 0.00 0.00 0.00 83 1016.4
20260903023053 81 312 0.0 0.0 0.00 0.00 0.00 83 1016.4
20260903022526 81 312 0.0 0.0 0.00 0.00 0.00 82 1016.4
20260903021959 81 312 0.0 0.0 0.00 0.00 0.00 83 1016.3
20260903021432 81 312 0.0 0.0 0.00 0.00 0.00 82 1016.3
20260903020427 81 312 0.0 0.0 0.00 0.00 0.00 82 1016.2
20260903015922 82 312 0.0 0.0 0.00 0.00 0.00 81 1016.3
20260903015422 82 312 0.0 0.0 0.00 0.00 0.00 81 1016.2
20260903014923 82 312 0.0 0.0 0.00 0.00 0.00 81 1016.2
20260903014355 82 312 0.0 0.0 0.00 0.00 0.00 81 1016.2
20260903013848 82 312 0.0 0.0 0.00 0.00 0.00 80 1015.9
20260903013344 83 312 0.0 0.0 0.00 0.00 0.00 81 1015.8
20260903012854 83 312 0.0 0.0 0.00 0.00 0.00 82 1015.7
20260903012350 83 312 0.0 0.0 0.00 0.00 0.00 81 1015.7
20260903011835 83 312 0.0 0.0 0.00 0.00 0.00 81 1015.7
20260903011324 83 312 0.0 0.0 0.00 0.00 0.00 81 1015.7
20260903010827 84 312 0.0 0.0 0.00 0.00 0.00 80 1015.5
20260903005228 84 312 0.0 0.0 0.00 0.00 0.00 77 1015.5
20260903004727 85 312 0.0 0.0 0.00 0.00 0.00 76 1015.5
20260903004212 85 312 0.0 0.0 0.00 0.00 0.00 76 1015.5
20260903003714 85 312 0.0 0.0 0.00 0.00 0.00 75 1015.4
20260903002712 86 312 0.0 0.0 0.00 0.00 0.00 76 1015.4
20260903001708 87 312 0.0 0.0 0.00 0.00 0.00 72 1015.4
20260903000635 87 312 0.0 0.0 0.00 0.00 0.00 70 1015.4
20260903000136 88 312 0.0 0.0 0.00 0.00 0.00 68 1015.5
20260902235608 88 312 0.0 0.0 0.00 0.00 0.00 67 1015.5
20260902234551 89 312 0.0 0.0 0.00 0.00 0.00 66 1015.4
20260902234035 89 312 0.0 0.0 0.00 0.00 0.00 66 1015.3
20260902233525 90 312 0.0 0.0 0.00 0.00 0.00 65 1015.4
20260902232958 90 312 0.0 0.0 0.00 0.00 0.00 63 1015.3
20260902231930 90 312 0.0 0.0 0.00 0.00 0.00 64 1015.2
20260902231414 90 312 0.0 0.0 0.00 0.00 0.00 63 1015.2
20260902230858 91 312 0.0 0.0 0.00 0.00 0.00 61 1015.1
20260902230348 91 312 0.0 4.0 0.00 0.00 0.00 62 1015.1
20260902225844 91 312 0.0 4.0 0.00 0.00 0.00 63 1015.0
20260902225320 91 225 0.0 0.0 0.00 0.00 0.00 63 1015.1
20260902224755 91 225 0.0 0.0 0.00 0.00 0.00 61 1015.1
20260902224256 92 225 0.0 0.0 0.00 0.00 0.00 60 1015.2
20260902223754 92 225 0.0 0.0 0.00 0.00 0.00 60 1015.1
20260902223252 92 225 0.0 0.0 0.00 0.00 0.00 59 1015.2
20260902222753 93 225 0.0 1.0 0.00 0.00 0.00 58 1015.3
20260902222248 93 225 0.0 1.0 0.00 0.00 0.00 55 1015.4
20260902221745 94 225 0.0 4.0 0.00 0.00 0.00 54 1015.4